[[{"header":{"parameterUnit":"m.s-1","parameterCategory":1,"la1":30.2991,"la2":30.254,"lo1":-89.0895,"lo2":-89.0444,"dy":0.0017,"dx":0.0017,"nx":28,"ny":28,"refTime":"2025-09-04T09:00:00:Z","depth":0,"parameterNumber":2,"parameterNumberName":"U-component_of_WINDS"},"data":[0,0,0,0,0,0,0,0,0,0,0,0,0,0,0,0,0,0,0,0,0,0,0,0,0,0,0,0,0,0,0,0,0,0,0,0,0,0,0,0,0,0,0,0,0,0,0,0,0,0,0,0,0,0,0,0,0,0,0.2729,0.2729,0,0.2745,0.2745,0.2746,0.2752,0.2752,0.2752,0.2752,0.2768,0.2769,0.2769,0,0,0,0,0,0,0,0,0,0,0,0,0,0.2702,0.2702,0.2729,0.2729,0.2729,0.2745,0.2745,0.2746,0.2752,0.2752,0.2752,0.2752,0.2768,0.2769,0.2769,0,0,0,0,0,0,0,0,0,0,0,0,0,0.2715,0.2703,0.2729,0.2735,0.2735,0.2745,0.2745,0.2746,0.2752,0.2752,0.2752,0.2752,0.2768,0.2769,0.2769,0.2775,0,0,0.2771,0.2772,0,0,0,0,0,0,0,0,0.2715,0.2716,0.2734,0.2734,0.2735,0.2747,0.2742,0.2755,0.2752,0.2746,0.2752,0.2752,0.2761,0.2762,0.2766,0.2775,0.2776,0.2772,0.2772,0.2772,0.2772,0,0,0,0,0,0,0,0.2714,0.2716,0.2735,0.2734,0.2735,0.2736,0.2738,0.2744,0.2754,0.2746,0.2747,0.2749,0.2762,0.2765,0.2766,0.2776,0.2772,0.2772,0.2773,0.2773,0.279,0.279,0,0,0,0,0,0,0.2712,0.2715,0.2735,0.2736,0.2725,0.2736,0.2738,0.2743,0.2754,0.2755,0.2749,0.2749,0.2764,0.2765,0.2767,0.2773,0.2772,0.2773,0.2773,0.279,0.279,0.279,0,0,0,0,0,0,0.2711,0.2714,0.2734,0.2726,0.2728,0.2737,0.2742,0.2743,0.2747,0.2755,0.2757,0.2751,0.2764,0.2766,0.2772,0.2773,0.2773,0.2774,0.279,0.279,0.279,0.2785,0,0,0,0,0,0,0.2711,0.2714,0.2716,0.2726,0.2729,0.274,0.2742,0.2744,0.2748,0.2748,0.2757,0.2759,0.2764,0.2771,0.2773,0.2774,0.2774,0.279,0.279,0.279,0.2785,0.2785,0.2785,0,0,0,0,0,0.271,0.2714,0.2716,0.2719,0.2732,0.274,0.2742,0.2748,0.2748,0.275,0.2756,0.2759,0.2773,0.2772,0.2774,0.2775,0.279,0.279,0.279,0.2785,0.2785,0.2785,0,0,0,0,0,0,0.2705,0.2716,0.2718,0.2726,0.2732,0.2741,0.2745,0.2747,0.2753,0.2754,0.276,0.2762,0.2768,0.2772,0.2771,0.278,0.2781,0.2782,0.2777,0.2777,0.2777,0.2776,0.2775,0,0,0,0,0,0.2705,0.2711,0.272,0.2726,0.2729,0.2736,0.274,0.2743,0.275,0.2753,0.2759,0.2765,0.277,0.2774,0.278,0.2786,0.2787,0.2788,0.2787,0.2787,0.2787,0.279,0.279,0.279,0.279,0.279,0,0,0.2705,0.2711,0.2715,0.2725,0.273,0.2736,0.2738,0.2744,0.2748,0.2754,0.276,0.2764,0.2771,0.2777,0.278,0.2781,0.2788,0.2787,0.2787,0.2787,0.279,0.279,0.279,0.279,0.279,0.279,0,0,0.2707,0.2713,0.2718,0.2723,0.2731,0.2735,0.2736,0.2745,0.2748,0.2755,0.2758,0.2763,0.2773,0.2777,0.2781,0.2783,0.2786,0.2785,0.2784,0.2786,0.2786,0.2786,0.2786,0.2786,0.2785,0.2785,0.2785,0,0.2706,0.2714,0.272,0.2726,0.273,0.2734,0.2739,0.2744,0.2753,0.2755,0.2756,0.2768,0.2773,0.2779,0.278,0.2783,0.2784,0.2784,0.2786,0.2786,0.2786,0.2786,0.2786,0.2785,0.2785,0.2785,0.2785,0,0.2712,0.2718,0.2721,0.2729,0.2734,0.2739,0.2745,0.2748,0.2751,0.2755,0.2761,0.2767,0.2774,0.2776,0.2779,0.2783,0.2783,0.2784,0.2786,0.2785,0.2786,0.2786,0.2785,0.2785,0.2785,0.2785,0,0,0.2712,0.2723,0.2724,0.2727,0.2736,0.274,0.2745,0.2751,0.2753,0.2759,0.2763,0.2771,0.2772,0.2776,0.2779,0.2781,0.2782,0.2783,0.2783,0.2782,0.2785,0.2783,0.2784,0.2784,0.2784,0.2784,0.2784,0,0.2715,0.2724,0.2729,0.2736,0.2741,0.2745,0.2749,0.2754,0.2757,0.2762,0.2766,0.2771,0.2773,0.2775,0.2777,0.2781,0.2782,0.2781,0.2787,0.2787,0.2784,0.2784,0.2782,0.2783,0.2785,0.2785,0.2785,0,0.272,0.2726,0.2733,0.2739,0.2741,0.2745,0.275,0.2755,0.276,0.2762,0.2766,0.277,0.2774,0.2775,0.278,0.2779,0.2782,0.2784,0.2784,0.2785,0.2786,0.2784,0.2783,0.2783,0.2785,0.2785,0.2785,0,0.2719,0.2728,0.2733,0.2736,0.2744,0.2746,0.2749,0.2755,0.2758,0.2762,0.2764,0.2769,0.2772,0.2776,0.278,0.278,0.2785,0.2786,0.2787,0.2786,0.2787,0.2787,0.2787,0.2789,0.2789,0.2789,0.2789,0,0.2722,0.2726,0.2732,0.2736,0.274,0.2745,0.2749,0.2752,0.2757,0.276,0.2764,0.2767,0.2773,0.2776,0.2779,0.2783,0.2784,0.2786,0.2787,0.2786,0.2785,0.2787,0.2787,0.2789,0.2789,0.2789,0.2789,0,0.2721,0.2726,0.2732,0.2738,0.274,0.2743,0.2748,0.2751,0.2754,0.2759,0.276,0.2765,0.2769,0.2774,0.278,0.2782,0.2785,0.2787,0.2783,0.2784,0.2784,0.2783,0.2784,0.2784,0.2787,0.2787,0.2787,0,0.2723,0.2726,0.2732,0.2735,0.2738,0.2742,0.2745,0.2749,0.2752,0.2758,0.276,0.2764,0.2768,0.2774,0.2779,0.2783,0.2784,0.2784,0.2785,0.2783,0.2783,0.2783,0.2783,0.2784,0.2784,0.2783,0.2783,0,0.2724,0.2726,0.273,0.2735,0.2738,0.2742,0.2746,0.2748,0.2753,0.2756,0.276,0.2763,0.2768,0.2772,0.2777,0.278,0.2782,0.2783,0.2783,0.2782,0.278,0.278,0.2782,0.2783,0.2783,0.2783,0.2783,0.2783,0.2724,0.2727,0.2731,0.2735,0.2739,0.2742,0.2745,0.2748,0.2752,0.2757,0.2759,0.2763,0.2767,0.2773,0.2776,0.2779,0.278,0.278,0.278,0.278,0.278,0.2779,0.278,0.278,0.278,0.278,0.278,0,0.2725,0.2728,0.2732,0.2737,0.274,0.2742,0.2746,0.2748,0.2752,0.2755,0.2759,0.2763,0.2767,0.2771,0.2775,0.2776,0.2777,0.2777,0.2777,0.2777,0.2779,0.2778,0.2776,0.2776,0.2776,0.2776,0.2776,0.2776,0.2726,0.273,0.2732,0.2737,0.274,0.2744,0.2746,0.2749,0.2752,0.2756,0.2759,0.2762,0.2766,0.277,0.2773,0.2774,0.2775,0.2774,0.2775,0.2777,0.2777,0.2778,0.2777,0.2774,0.2774,0.2773,0.2773,0.2773]},{"header":{"parameterUnit":"m.s-1","parameterCategory":1,"la1":30.2991,"la2":30.254,"lo1":-89.0895,"lo2":-89.0444,"dy":0.0017,"dx":0.0017,"nx":28,"ny":28,"refTime":"2025-09-04T09:00:00:Z","depth":0,"parameterNumber":3,"parameterNumberName":"V-component_of_WINDS"},"data":[0,0,0,0,0,0,0,0,0,0,0,0,0,0,0,0,0,0,0,0,0,0,0,0,0,0,0,0,0,0,0,0,0,0,0,0,0,0,0,0,0,0,0,0,0,0,0,0,0,0,0,0,0,0,0,0,0,0,4.6785,4.6785,0,4.6781,4.6781,4.6781,4.6716,4.6714,4.6712,4.6711,4.6707,4.6708,4.671,0,0,0,0,0,0,0,0,0,0,0,0,0,4.6735,4.6736,4.6785,4.6785,4.6785,4.6781,4.6781,4.6781,4.6716,4.6714,4.6712,4.671,4.6706,4.6708,4.671,0,0,0,0,0,0,0,0,0,0,0,0,0,4.6747,4.6737,4.6785,4.6752,4.6749,4.6781,4.6781,4.6781,4.6716,4.6714,4.6711,4.6709,4.6706,4.6708,4.671,4.6773,0,0,4.6717,4.6718,0,0,0,0,0,0,0,0,4.6746,4.6748,4.6757,4.6754,4.6751,4.6746,4.6762,4.6778,4.6717,4.6729,4.6711,4.6708,4.6722,4.6723,4.6727,4.6773,4.6773,4.6717,4.6718,4.6719,4.672,0,0,0,0,0,0,0,4.6745,4.6748,4.6783,4.6757,4.6753,4.6737,4.6736,4.6765,4.6739,4.6728,4.6723,4.6723,4.672,4.6725,4.6727,4.6773,4.6717,4.6719,4.672,4.6721,4.6867,4.687,0,0,0,0,0,0,4.6749,4.6748,4.6783,4.6783,4.6742,4.674,4.6739,4.675,4.6739,4.6735,4.6725,4.672,4.6723,4.6724,4.6726,4.6797,4.6719,4.6721,4.6722,4.6865,4.6868,4.687,0,0,0,0,0,0,4.6748,4.6753,4.6783,4.6764,4.6767,4.6743,4.6757,4.6751,4.6757,4.6737,4.6732,4.6736,4.6721,4.6723,4.6761,4.6796,4.6722,4.6724,4.6861,4.6865,4.6869,4.694,0,0,0,0,0,0,4.6747,4.6753,4.6777,4.6765,4.6768,4.6819,4.6759,4.6753,4.6761,4.6754,4.6746,4.6742,4.6719,4.6759,4.6764,4.6798,4.6726,4.6858,4.6863,4.6868,4.6935,4.6946,4.6956,0,0,0,0,0,4.6746,4.6798,4.6779,4.6783,4.6798,4.6821,4.6823,4.6796,4.6764,4.6787,4.6774,4.6742,4.6792,4.6763,4.6768,4.6803,4.6856,4.6862,4.6867,4.693,4.6944,4.6956,0,0,0,0,0,0,4.6815,4.6796,4.6774,4.6824,4.6825,4.681,4.6839,4.6812,4.6821,4.6815,4.6781,4.6779,4.6822,4.6817,4.6785,4.6863,4.6818,4.6825,4.6864,4.6877,4.6887,4.6887,4.6728,0,0,0,0,0,4.6836,4.6857,4.6839,4.6885,4.6886,4.6863,4.6872,4.6851,4.685,4.685,4.684,4.684,4.6855,4.6866,4.688,4.6935,4.693,4.6961,4.6972,4.6981,4.6986,4.7012,4.7025,4.689,4.689,4.6889,0,0,4.688,4.6872,4.6887,4.6898,4.6896,4.6917,4.6863,4.6889,4.6904,4.6854,4.6888,4.6881,4.6879,4.6925,4.6945,4.6922,4.7023,4.6988,4.6995,4.6996,4.702,4.7032,4.7044,4.6894,4.6893,4.6892,0,0,4.6969,4.6967,4.7003,4.7002,4.6999,4.6983,4.6992,4.6981,4.6974,4.7008,4.697,4.6988,4.7016,4.7015,4.7019,4.7108,4.7077,4.7113,4.7167,4.7193,4.7204,4.7213,4.7242,4.7253,4.7119,4.712,4.712,0,4.7024,4.7054,4.7025,4.7052,4.7057,4.7013,4.7049,4.705,4.7052,4.7056,4.7031,4.7063,4.7059,4.7103,4.7124,4.713,4.7137,4.7113,4.7205,4.7214,4.7222,4.7249,4.726,4.7124,4.7123,4.7123,4.7122,0,4.712,4.7142,4.7172,4.7173,4.7182,4.7214,4.7189,4.7202,4.718,4.7167,4.7201,4.7194,4.7204,4.7214,4.7194,4.7255,4.724,4.7211,4.7165,4.7239,4.7264,4.7275,4.713,4.7128,4.7127,4.7126,0,0,4.7252,4.7237,4.7248,4.7247,4.724,4.7256,4.7286,4.7295,4.7305,4.7309,4.7331,4.7355,4.7327,4.7331,4.7311,4.7334,4.7401,4.7301,4.73,4.7317,4.7464,4.7484,4.7497,4.7382,4.7384,4.7385,4.7464,0,4.7336,4.7384,4.7358,4.741,4.7428,4.7386,4.7411,4.741,4.7398,4.7412,4.7399,4.7415,4.7379,4.738,4.7402,4.7388,4.7429,4.7383,4.74,4.7401,4.7399,4.7511,4.7532,4.7606,4.7473,4.7475,4.7476,0,4.744,4.7446,4.7499,4.7487,4.7494,4.7517,4.7522,4.7537,4.7533,4.7523,4.7527,4.7501,4.7527,4.7484,4.752,4.7489,4.7495,4.7489,4.7492,4.749,4.7441,4.7509,4.763,4.764,4.7492,4.7491,4.7489,0,4.7528,4.7549,4.7583,4.7584,4.7572,4.7588,4.7584,4.7578,4.7585,4.759,4.7594,4.7603,4.7607,4.7614,4.759,4.7562,4.7628,4.7584,4.7619,4.762,4.7633,4.7632,4.7753,4.7642,4.7642,4.7642,4.7641,0,4.7622,4.7656,4.7621,4.7642,4.7677,4.7648,4.7684,4.7675,4.767,4.7688,4.7653,4.767,4.7639,4.7653,4.7635,4.7666,4.7669,4.766,4.7654,4.7662,4.7662,4.7663,4.7656,4.7644,4.7644,4.7643,4.7643,0,4.7725,4.7704,4.7737,4.7722,4.7719,4.7746,4.7732,4.775,4.7736,4.7759,4.7762,4.774,4.7755,4.7732,4.7745,4.7732,4.7774,4.7762,4.7775,4.777,4.7805,4.7801,4.7929,4.7943,4.7826,4.7827,4.7828,0,4.7785,4.7809,4.7797,4.7805,4.7803,4.7818,4.7824,4.7796,4.7804,4.7801,4.7819,4.7831,4.7838,4.7863,4.7848,4.7857,4.7843,4.7887,4.7844,4.7849,4.784,4.7837,4.7839,4.7895,4.7896,4.7898,4.7899,0,4.7894,4.7882,4.7892,4.7898,4.7906,4.791,4.7911,4.792,4.789,4.7901,4.7915,4.792,4.7932,4.7943,4.7948,4.7943,4.7915,4.7913,4.7921,4.7927,4.7932,4.7927,4.7796,4.7909,4.7908,4.7907,4.7907,4.7906,4.7975,4.7993,4.7987,4.7998,4.7996,4.7998,4.8013,4.8,4.8011,4.8018,4.8001,4.8019,4.8014,4.8017,4.8015,4.8028,4.8009,4.8021,4.8024,4.8027,4.8031,4.7932,4.803,4.8029,4.8029,4.8029,4.8029,0,4.8079,4.8072,4.8084,4.8085,4.8094,4.8068,4.8068,4.8077,4.8092,4.809,4.8098,4.8113,4.8123,4.8109,4.8117,4.813,4.8117,4.8132,4.8129,4.8128,4.8049,4.804,4.8142,4.8142,4.8142,4.8142,4.8142,4.8142,4.8134,4.8163,4.815,4.8177,4.817,4.8186,4.8188,4.8189,4.8186,4.8205,4.8213,4.8203,4.8196,4.8203,4.8211,4.8206,4.8209,4.8229,4.822,4.8146,4.8134,4.8124,4.8114,4.8231,4.8231,4.8297,4.8298,4.8298]}]]